Location: Newark
(44.3248°N, 23.7839°E)
Time: 04:15:00
(UTC+00:00)

ITAMSAT 1 - Visible Passes

Search period start: 16 April 2024 00:00
Search period end: 26 April 2024 00:00
Orbit: 783 x 794 km, 98.8° (Epoch: 15 April)

Date Brightness Start Highest point End Pass type
(mag) Time Alt. Az. Time Alt. Az. Time Alt. Az.
16 Apr 7.6 18:37:18 15° SSE 18:41:39 81° ENE 18:46:54 10° NNW visible
16 Apr 10.2 20:19:10 10° WSW 20:21:42 13° W 20:24:14 10° WNW visible
17 Apr 8.1 18:07:00 10° SE 18:11:54 44° ENE 18:16:52 10° N visible
17 Apr 9.5 19:47:41 12° SW 19:51:30 25° W 19:55:48 10° NW visible
18 Apr 8.8 17:38:04 10° ESE 17:42:17 26° ENE 17:46:32 10° N visible
18 Apr 8.5 19:17:23 15° SSW 19:21:27 46° W 19:26:29 10° NNW visible
19 Apr 7.7 18:47:05 15° SSE 18:51:31 85° WSW 18:56:47 10° NNW visible
19 Apr 10.3 20:30:30 10° W 20:31:43 11° W 20:32:56 10° WNW visible
20 Apr 7.9 18:16:47 11° SE 18:21:44 54° ENE 18:26:50 10° N visible
20 Apr 9.8 19:57:37 10° SW 20:01:28 21° W 20:05:22 10° NW visible
21 Apr 8.6 17:47:34 10° SE 17:52:04 30° ENE 17:56:35 10° N visible
21 Apr 8.9 19:27:11 13° SSW 19:31:23 38° W 19:36:15 10° NNW visible
22 Apr 7.9 18:56:53 14° S 19:01:24 70° WSW 19:06:39 10° NNW visible
23 Apr 7.7 18:26:34 11° SSE 18:31:34 65° ENE 18:36:46 10° N visible
23 Apr 10.0 20:08:06 10° SW 20:11:27 17° W 20:14:50 10° NW visible
24 Apr 8.4 17:57:08 10° SE 18:01:52 36° ENE 18:06:37 10° N visible
24 Apr 9.2 19:36:59 11° SSW 19:41:18 31° W 19:45:57 10° NW visible
25 Apr 8.2 19:06:41 13° S 19:11:17 57° WSW 19:16:28 10° NNW visible
